LAN1301 SGAS-SBGR

Flight info

Callsign LAN1301
Flight time 1h 35m
Altitude 39000
Route ROLOK ROLOK UM548 KAMIL UZ28 XONUG UZ121 BUXUK
Aircraft A320/M-SDE3FGHIRWY/LB1

Departure

Time 2026-05-08 21:39
Airport Silvio Pettirossi International Airport (SGAS)

Arrival

Time 2026-05-08 23:14
Airport São Paulo/Guarulhos–Governor André Franco Montoro International Airport (SBGR)
Time Latitude Longitude Altitude Speed Heading
2026-05-08 21:18 -25.24296 -57.51495 279 ft 0 kts 102°
2026-05-08 21:30 -25.24294 -57.51506 281 ft 4 kts 103°
2026-05-08 21:30 -25.24288 -57.51535 285 ft 4 kts 104°
2026-05-08 21:30 -25.24281 -57.51564 281 ft 4 kts 105°
2026-05-08 21:30 -25.24274 -57.51593 282 ft 4 kts 104°
2026-05-08 21:31 -25.24267 -57.51622 281 ft 4 kts 98°
2026-05-08 21:31 -25.24267 -57.51649 284 ft 4 kts 54°
2026-05-08 21:31 -25.24272 -57.51656 282 ft 0 kts 12°
2026-05-08 21:34 -25.24266 -57.51655 284 ft 6 kts 12°
2026-05-08 21:34 -25.24193 -57.51638 279 ft 11 kts 12°
2026-05-08 21:34 -25.24128 -57.51622 279 ft 9 kts 12°
2026-05-08 21:35 -25.24069 -57.51610 279 ft 8 kts
2026-05-08 21:35 -25.24016 -57.51631 278 ft 11 kts 329°
2026-05-08 21:35 -25.23896 -57.51672 278 ft 20 kts
2026-05-08 21:35 -25.23759 -57.51642 278 ft 20 kts 13°
2026-05-08 21:36 -25.23621 -57.51606 278 ft 21 kts 14°
2026-05-08 21:36 -25.23480 -57.51570 278 ft 21 kts 13°
2026-05-08 21:36 -25.23334 -57.51532 278 ft 22 kts 12°
2026-05-08 21:36 -25.23176 -57.51496 278 ft 24 kts 12°
2026-05-08 21:37 -25.23003 -57.51451 277 ft 26 kts 11°
2026-05-08 21:37 -25.22816 -57.51406 277 ft 29 kts 13°
2026-05-08 21:37 -25.22640 -57.51359 277 ft 20 kts 11°
2026-05-08 21:37 -25.22544 -57.51409 275 ft 16 kts 294°
2026-05-08 21:38 -25.22545 -57.51541 268 ft 20 kts 225°
2026-05-08 21:38 -25.22754 -57.51616 271 ft 62 kts 192°
2026-05-08 21:38 -25.23403 -57.51767 273 ft 128 kts 192°
2026-05-08 21:38 -25.24433 -57.52001 462 ft 162 kts 192°
2026-05-08 21:39 -25.25533 -57.52244 1284 ft 158 kts 192°
2026-05-08 21:39 -25.26611 -57.52510 1923 ft 169 kts 192°
2026-05-08 21:39 -25.27842 -57.52818 2351 ft 194 kts 191°
2026-05-08 21:39 -25.29240 -57.53166 2880 ft 218 kts 191°
2026-05-08 21:40 -25.30799 -57.53550 3509 ft 238 kts 191°
2026-05-08 21:40 -25.32462 -57.53744 4385 ft 246 kts 171°
2026-05-08 21:40 -25.33994 -57.52878 5277 ft 258 kts 135°
2026-05-08 21:41 -25.35273 -57.49073 7129 ft 276 kts 99°
2026-05-08 21:41 -25.35503 -57.46931 7980 ft 285 kts 97°
2026-05-08 21:41 -25.35725 -57.44727 8818 ft 293 kts 96°
2026-05-08 21:41 -25.36002 -57.42459 9659 ft 302 kts 96°
2026-05-08 21:42 -25.36069 -57.40099 10260 ft 316 kts 85°
2026-05-08 21:42 -25.36004 -57.37582 10605 ft 340 kts 86°
2026-05-08 21:42 -25.35968 -57.34908 11193 ft 353 kts 87°
2026-05-08 21:42 -25.35957 -57.32158 11919 ft 362 kts 87°
2026-05-08 21:43 -25.35959 -57.29345 12660 ft 370 kts 87°
2026-05-08 21:43 -25.35964 -57.26476 13396 ft 377 kts 87°
2026-05-08 21:43 -25.35967 -57.23590 14069 ft 384 kts 86°
2026-05-08 21:43 -25.35964 -57.20616 14696 ft 390 kts 86°
2026-05-08 21:44 -25.35960 -57.17594 15343 ft 396 kts 86°
2026-05-08 21:44 -25.35953 -57.14531 15970 ft 401 kts 86°
2026-05-08 21:44 -25.35939 -57.11425 16589 ft 407 kts 86°
2026-05-08 21:44 -25.35922 -57.08276 17208 ft 412 kts 86°
2026-05-08 21:45 -25.35908 -57.05084 17822 ft 418 kts 86°
2026-05-08 21:45 -25.35895 -57.01858 18398 ft 423 kts 87°
2026-05-08 21:45 -25.35882 -56.98585 18917 ft 428 kts 87°
2026-05-08 21:45 -25.35869 -56.95279 19456 ft 432 kts 87°
2026-05-08 21:46 -25.35852 -56.91944 19992 ft 436 kts 87°
2026-05-08 21:46 -25.35834 -56.88577 20542 ft 440 kts 87°
2026-05-08 21:46 -25.35813 -56.85181 21084 ft 444 kts 87°
2026-05-08 21:46 -25.35794 -56.81755 21608 ft 448 kts 87°
2026-05-08 21:47 -25.35778 -56.78298 22123 ft 452 kts 87°
2026-05-08 21:47 -25.35762 -56.74808 22634 ft 456 kts 87°
2026-05-08 21:47 -25.35743 -56.71291 23154 ft 459 kts 87°
2026-05-08 21:47 -25.35722 -56.67744 23648 ft 463 kts 87°
2026-05-08 21:48 -25.35699 -56.64216 24063 ft 467 kts 87°
2026-05-08 21:48 -25.35751 -56.60612 24476 ft 472 kts 93°
2026-05-08 21:48 -25.36142 -56.56994 24884 ft 476 kts 96°
2026-05-08 21:48 -25.36560 -56.53358 25296 ft 479 kts 96°
2026-05-08 21:49 -25.36983 -56.49680 25703 ft 483 kts 96°
2026-05-08 21:49 -25.37406 -56.45988 26110 ft 487 kts 96°
2026-05-08 21:49 -25.37831 -56.42263 26523 ft 490 kts 96°
2026-05-08 21:49 -25.38256 -56.38511 26933 ft 493 kts 96°
2026-05-08 21:50 -25.38683 -56.34732 27320 ft 497 kts 96°
2026-05-08 21:50 -25.39112 -56.30926 27708 ft 501 kts 96°
2026-05-08 21:50 -25.39544 -56.27092 28095 ft 504 kts 96°
2026-05-08 21:50 -25.39979 -56.23231 28481 ft 508 kts 96°
2026-05-08 21:51 -25.40414 -56.19343 28868 ft 511 kts 96°
2026-05-08 21:51 -25.40850 -56.15430 29239 ft 514 kts 95°
2026-05-08 21:51 -25.41291 -56.11492 29609 ft 518 kts 95°
2026-05-08 21:51 -25.41733 -56.07526 29973 ft 521 kts 95°
2026-05-08 21:52 -25.42177 -56.03534 30286 ft 524 kts 95°
2026-05-08 21:52 -25.42620 -55.99522 30596 ft 527 kts 95°
2026-05-08 21:52 -25.43062 -55.95490 30900 ft 529 kts 95°
2026-05-08 21:52 -25.43503 -55.91450 31197 ft 531 kts 95°
2026-05-08 21:53 -25.43952 -55.87372 31497 ft 534 kts 95°
2026-05-08 21:53 -25.44385 -55.83444 31797 ft 535 kts 95°
2026-05-08 21:53 -25.44857 -55.79244 32222 ft 533 kts 95°
2026-05-08 21:53 -25.45323 -55.75178 32629 ft 532 kts 95°
2026-05-08 21:54 -25.45795 -55.71119 33028 ft 531 kts 95°
2026-05-08 21:54 -25.46271 -55.67067 33438 ft 531 kts 95°
2026-05-08 21:54 -25.46752 -55.63022 33853 ft 530 kts 95°
2026-05-08 21:54 -25.47237 -55.58985 34241 ft 529 kts 95°
2026-05-08 21:55 -25.47722 -55.54955 34615 ft 528 kts 95°
2026-05-08 21:55 -25.48206 -55.50935 34996 ft 526 kts 95°
2026-05-08 21:55 -25.48680 -55.46980 35385 ft 524 kts 95°
2026-05-08 21:56 -25.49634 -55.38969 36158 ft 520 kts 95°
2026-05-08 21:56 -25.50093 -55.35066 36553 ft 517 kts 95°
2026-05-08 21:56 -25.50555 -55.31134 36963 ft 514 kts 95°
2026-05-08 21:56 -25.51011 -55.27226 37377 ft 510 kts 95°
2026-05-08 21:57 -25.51462 -55.23343 37803 ft 507 kts 95°
2026-05-08 21:57 -25.51909 -55.19488 38234 ft 503 kts 95°
2026-05-08 21:57 -25.52349 -55.15660 38671 ft 499 kts 95°
2026-05-08 21:57 -25.52785 -55.11862 38915 ft 499 kts 95°
2026-05-08 21:58 -25.53222 -55.08039 38980 ft 503 kts 95°
2026-05-08 21:58 -25.54107 -55.00271 38986 ft 514 kts 95°
2026-05-08 21:59 -25.55002 -54.92370 38987 ft 519 kts 95°
2026-05-08 21:59 -25.55894 -54.84434 38985 ft 519 kts 95°
2026-05-08 22:00 -25.56787 -54.76491 38982 ft 519 kts 95°
2026-05-08 22:00 -25.57670 -54.68610 38981 ft 519 kts 94°
2026-05-08 22:01 -25.58558 -54.60685 38979 ft 519 kts 94°
2026-05-08 22:01 -25.59446 -54.52748 38982 ft 519 kts 94°
2026-05-08 22:02 -25.60336 -54.44812 38986 ft 519 kts 94°
2026-05-08 22:02 -25.61227 -54.36879 38981 ft 519 kts 94°
2026-05-08 22:03 -25.62120 -54.28945 38991 ft 519 kts 94°
2026-05-08 22:03 -25.63013 -54.21009 38997 ft 519 kts 94°
2026-05-08 22:04 -25.63897 -54.13074 38998 ft 519 kts 94°
2026-05-08 22:04 -25.64775 -54.05149 38999 ft 519 kts 94°
2026-05-08 22:05 -25.65647 -53.97206 39001 ft 519 kts 94°
2026-05-08 22:05 -25.66520 -53.89280 39001 ft 519 kts 94°
2026-05-08 22:06 -25.67396 -53.81344 39009 ft 519 kts 94°
2026-05-08 22:06 -25.68276 -53.73405 39009 ft 519 kts 94°
2026-05-08 22:07 -25.69141 -53.65518 39011 ft 519 kts 94°
2026-05-08 22:07 -25.70004 -53.57575 39008 ft 519 kts 94°
2026-05-08 22:08 -25.70867 -53.49631 39010 ft 519 kts 94°
2026-05-08 22:08 -25.71730 -53.41697 39011 ft 519 kts 94°
2026-05-08 22:09 -25.72590 -53.33755 39013 ft 519 kts 94°
2026-05-08 22:09 -25.73451 -53.25813 39013 ft 519 kts 94°
2026-05-08 22:10 -25.74166 -53.19216 39014 ft 519 kts 94°
2026-05-08 22:10 -25.75032 -53.11272 39010 ft 519 kts 94°
2026-05-08 22:11 -25.75160 -53.02110 39007 ft 503 kts 70°
2026-05-08 22:11 -25.74048 -52.98507 39004 ft 487 kts 54°
2026-05-08 22:11 -25.72929 -52.96339 38998 ft 476 kts 46°
2026-05-08 22:12 -25.69195 -52.90292 38987 ft 476 kts 46°
2026-05-08 22:12 -25.65461 -52.84213 38985 ft 477 kts 46°
2026-05-08 22:13 -25.61723 -52.78120 38982 ft 478 kts 46°
2026-05-08 22:13 -25.58002 -52.72070 38985 ft 478 kts 46°
2026-05-08 22:14 -25.54248 -52.65984 38990 ft 479 kts 46°
2026-05-08 22:14 -25.50489 -52.59900 38989 ft 479 kts 46°
2026-05-08 22:15 -25.46729 -52.53814 38988 ft 479 kts 46°
2026-05-08 22:15 -25.42963 -52.47729 38981 ft 479 kts 46°
2026-05-08 22:16 -25.39193 -52.41647 38979 ft 480 kts 46°
2026-05-08 22:16 -25.35418 -52.35561 38970 ft 480 kts 46°
2026-05-08 22:17 -25.31667 -52.29454 38963 ft 485 kts 51°
2026-05-08 22:17 -25.30180 -52.26065 38963 ft 496 kts 62°
2026-05-08 22:17 -25.29204 -52.22376 38960 ft 505 kts 72°
2026-05-08 22:18 -25.27727 -52.14788 38962 ft 505 kts 71°
2026-05-08 22:18 -25.26224 -52.07203 38962 ft 505 kts 71°
2026-05-08 22:19 -25.24711 -51.99621 38967 ft 505 kts 71°
2026-05-08 22:19 -25.23201 -51.92106 38966 ft 505 kts 71°
2026-05-08 22:20 -25.21684 -51.84536 38964 ft 505 kts 72°
2026-05-08 22:20 -25.20167 -51.76971 38967 ft 504 kts 72°
2026-05-08 22:21 -25.18640 -51.69407 38960 ft 504 kts 71°
2026-05-08 22:21 -25.17114 -51.61870 38955 ft 503 kts 72°
2026-05-08 22:22 -25.15588 -51.54328 38956 ft 503 kts 72°
2026-05-08 22:22 -25.14056 -51.46795 38950 ft 503 kts 72°
2026-05-08 22:23 -25.12526 -51.39321 38951 ft 502 kts 72°
2026-05-08 22:23 -25.10982 -51.31806 38975 ft 501 kts 70°
2026-05-08 22:24 -25.09450 -51.24336 38957 ft 499 kts 70°
2026-05-08 22:24 -25.07920 -51.16891 38955 ft 497 kts 70°
2026-05-08 22:25 -25.06386 -51.09458 38954 ft 497 kts 71°
2026-05-08 22:25 -25.04851 -51.02033 38954 ft 496 kts 71°
2026-05-08 22:26 -25.03304 -50.94613 38950 ft 496 kts 71°
2026-05-08 22:26 -25.01752 -50.87223 38948 ft 495 kts 71°
2026-05-08 22:27 -25.00198 -50.79830 38952 ft 495 kts 71°
2026-05-08 22:27 -24.98652 -50.72445 38949 ft 494 kts 71°
2026-05-08 22:28 -24.97109 -50.65065 38955 ft 494 kts 71°
2026-05-08 22:28 -24.95564 -50.57744 38959 ft 493 kts 71°
2026-05-08 22:29 -24.93999 -50.50384 38965 ft 493 kts 71°
2026-05-08 22:29 -24.92438 -50.43027 38969 ft 493 kts 71°
2026-05-08 22:30 -24.90875 -50.35675 38967 ft 493 kts 71°
2026-05-08 22:30 -24.89317 -50.28330 38970 ft 492 kts 71°
2026-05-08 22:31 -24.87756 -50.21000 38976 ft 492 kts 71°
2026-05-08 22:31 -24.86184 -50.13674 38975 ft 491 kts 71°
2026-05-08 22:32 -24.84606 -50.06358 38982 ft 491 kts 71°
2026-05-08 22:32 -24.83025 -49.99051 38980 ft 490 kts 71°
2026-05-08 22:33 -24.81449 -49.91750 38982 ft 490 kts 72°
2026-05-08 22:33 -24.79873 -49.84455 38976 ft 490 kts 72°
2026-05-08 22:34 -24.78165 -49.77214 38973 ft 488 kts 69°
2026-05-08 22:34 -24.76238 -49.70064 38969 ft 487 kts 68°
2026-05-08 22:35 -24.74286 -49.62920 38972 ft 488 kts 68°
2026-05-08 22:35 -24.72402 -49.55796 38965 ft 489 kts 69°
2026-05-08 22:36 -24.70525 -49.48567 38965 ft 489 kts 69°
2026-05-08 22:36 -24.68656 -49.41430 38967 ft 489 kts 69°
2026-05-08 22:37 -24.66756 -49.34253 38968 ft 489 kts 69°
2026-05-08 22:37 -24.64874 -49.27070 38971 ft 489 kts 69°
2026-05-08 22:38 -24.62997 -49.19887 38970 ft 489 kts 69°
2026-05-08 22:38 -24.61110 -49.12706 38968 ft 489 kts 69°
2026-05-08 22:39 -24.59176 -49.05544 38963 ft 489 kts 69°
2026-05-08 22:39 -24.57230 -48.98393 38961 ft 489 kts 69°
2026-05-08 22:40 -24.55294 -48.91230 38961 ft 489 kts 69°
2026-05-08 22:40 -24.53353 -48.84060 38958 ft 490 kts 69°
2026-05-08 22:41 -24.51404 -48.76887 38954 ft 490 kts 69°
2026-05-08 22:41 -24.49474 -48.69756 38950 ft 491 kts 69°
2026-05-08 22:42 -24.47531 -48.62564 38960 ft 491 kts 69°
2026-05-08 22:42 -24.45590 -48.55371 38961 ft 492 kts 69°
2026-05-08 22:43 -24.43643 -48.48189 38958 ft 491 kts 69°
2026-05-08 22:43 -24.41686 -48.41008 38949 ft 491 kts 69°
2026-05-08 22:44 -24.39725 -48.33832 38949 ft 491 kts 69°
2026-05-08 22:44 -24.37761 -48.26662 38943 ft 491 kts 69°
2026-05-08 22:45 -24.35304 -48.19756 38936 ft 481 kts 53°
2026-05-08 22:45 -24.31103 -48.14269 38929 ft 463 kts 33°
2026-05-08 22:46 -24.25754 -48.10565 38922 ft 451 kts 21°
2026-05-08 22:46 -24.20225 -48.07304 38927 ft 453 kts 21°
2026-05-08 22:47 -24.14683 -48.04044 38924 ft 452 kts 21°
2026-05-08 22:47 -24.09146 -48.00788 38930 ft 452 kts 21°
2026-05-08 22:48 -24.03642 -47.97563 38941 ft 452 kts 21°
2026-05-08 22:48 -23.98104 -47.94312 38941 ft 452 kts 21°
2026-05-08 22:49 -23.92570 -47.91050 38955 ft 452 kts 21°
2026-05-08 22:49 -23.84263 -47.86186 38955 ft 451 kts 21°
2026-05-08 22:50 -23.78725 -47.82952 38959 ft 451 kts 21°
2026-05-08 22:50 -23.75955 -47.81336 38954 ft 452 kts 21°
2026-05-08 22:51 -23.71378 -47.78639 38953 ft 452 kts 21°
2026-05-08 22:51 -23.65845 -47.75367 38952 ft 453 kts 21°
2026-05-08 22:52 -23.60302 -47.72101 38954 ft 453 kts 21°
2026-05-08 22:52 -23.54748 -47.68842 38959 ft 453 kts 21°
2026-05-08 22:53 -23.49183 -47.65589 38951 ft 454 kts 21°
2026-05-08 22:53 -23.43616 -47.62346 38958 ft 454 kts 21°
2026-05-08 22:54 -23.38034 -47.59110 38951 ft 454 kts 21°
2026-05-08 22:54 -23.32656 -47.55437 38646 ft 467 kts 39°
2026-05-08 22:55 -23.30643 -47.52630 38007 ft 477 kts 57°
2026-05-08 22:55 -23.29155 -47.49389 37272 ft 481 kts 60°
2026-05-08 22:55 -23.27700 -47.46109 36565 ft 482 kts 60°
2026-05-08 22:55 -23.26242 -47.42821 35892 ft 482 kts 60°
2026-05-08 22:56 -23.24784 -47.39554 35331 ft 479 kts 59°
2026-05-08 22:56 -23.23346 -47.36346 34874 ft 475 kts 59°
2026-05-08 22:56 -23.21906 -47.33141 34411 ft 471 kts 59°
2026-05-08 22:56 -23.20471 -47.29962 33950 ft 466 kts 59°
2026-05-08 22:57 -23.19045 -47.26814 33426 ft 463 kts 59°
2026-05-08 22:57 -23.17628 -47.23686 32897 ft 459 kts 59°
2026-05-08 22:57 -23.16221 -47.20581 32377 ft 456 kts 58°
2026-05-08 22:57 -23.14781 -47.17529 31874 ft 449 kts 52°
2026-05-08 22:58 -23.12920 -47.14876 31401 ft 436 kts 41°
2026-05-08 22:58 -23.10869 -47.12464 30913 ft 433 kts 41°
2026-05-08 22:58 -23.08835 -47.10073 30448 ft 429 kts 41°
2026-05-08 22:58 -23.06817 -47.07695 29985 ft 426 kts 41°
2026-05-08 22:59 -23.04824 -47.05340 29487 ft 421 kts 41°
2026-05-08 22:59 -23.02878 -47.03042 28996 ft 417 kts 41°
2026-05-08 22:59 -23.00928 -47.00746 28388 ft 410 kts 41°
2026-05-08 22:59 -22.99007 -46.98488 27550 ft 404 kts 41°
2026-05-08 23:00 -22.97111 -46.96268 26700 ft 398 kts 45°
2026-05-08 23:00 -22.95236 -46.94074 25892 ft 395 kts 45°
2026-05-08 23:00 -22.93378 -46.91898 25158 ft 391 kts 45°
2026-05-08 23:00 -22.91543 -46.89744 24448 ft 386 kts 45°
2026-05-08 23:01 -22.89737 -46.87609 23778 ft 382 kts 48°
2026-05-08 23:01 -22.88396 -46.85162 23057 ft 378 kts 72°
2026-05-08 23:01 -22.88133 -46.82373 22347 ft 371 kts 99°
2026-05-08 23:01 -22.88984 -46.79787 21639 ft 362 kts 125°
2026-05-08 23:02 -22.90743 -46.77910 20947 ft 354 kts 150°
2026-05-08 23:02 -22.92920 -46.76689 20178 ft 352 kts 155°
2026-05-08 23:02 -22.95129 -46.75541 19457 ft 351 kts 155°
2026-05-08 23:02 -22.97319 -46.74405 18778 ft 349 kts 154°
2026-05-08 23:03 -22.99467 -46.73275 18108 ft 346 kts 150°
2026-05-08 23:03 -23.01505 -46.71904 17400 ft 343 kts 143°
2026-05-08 23:03 -23.03400 -46.70352 16750 ft 339 kts 140°
2026-05-08 23:03 -23.05204 -46.68730 16115 ft 336 kts 138°
2026-05-08 23:04 -23.06981 -46.67088 15502 ft 333 kts 138°
2026-05-08 23:04 -23.08741 -46.65478 14908 ft 330 kts 139°
2026-05-08 23:04 -23.10506 -46.63900 14332 ft 328 kts 139°
2026-05-08 23:04 -23.12272 -46.62353 13849 ft 324 kts 139°
2026-05-08 23:05 -23.14028 -46.60834 13200 ft 322 kts 140°
2026-05-08 23:05 -23.15185 -46.59838 12776 ft 320 kts 140°
2026-05-08 23:05 -23.16896 -46.58371 12529 ft 305 kts 140°
2026-05-08 23:05 -23.18562 -46.57000 12109 ft 297 kts 148°
2026-05-08 23:06 -23.20486 -46.56259 11618 ft 294 kts 174°
2026-05-08 23:06 -23.22502 -46.56426 11101 ft 290 kts 200°
2026-05-08 23:06 -23.24269 -46.57396 10577 ft 283 kts 217°
2026-05-08 23:06 -23.25916 -46.58576 10052 ft 282 kts 217°
2026-05-08 23:07 -23.27553 -46.59743 9514 ft 280 kts 217°
2026-05-08 23:07 -23.29178 -46.60895 8950 ft 278 kts 217°
2026-05-08 23:07 -23.30793 -46.62039 8381 ft 276 kts 217°
2026-05-08 23:07 -23.32391 -46.63170 8083 ft 273 kts 217°
2026-05-08 23:08 -23.33990 -46.64308 8012 ft 275 kts 217°
2026-05-08 23:08 -23.35597 -46.65452 8004 ft 276 kts 217°
2026-05-08 23:08 -23.37197 -46.66588 7696 ft 274 kts 217°
2026-05-08 23:08 -23.38771 -46.67703 7525 ft 265 kts 217°
2026-05-08 23:09 -23.40287 -46.68775 7401 ft 254 kts 217°
2026-05-08 23:09 -23.41827 -46.69646 7291 ft 248 kts 202°
2026-05-08 23:09 -23.43499 -46.70022 7042 ft 245 kts 185°
2026-05-08 23:09 -23.45202 -46.69874 6623 ft 246 kts 167°
2026-05-08 23:10 -23.46813 -46.69282 6216 ft 244 kts 147°
2026-05-08 23:10 -23.47993 -46.68017 5824 ft 238 kts 115°
2026-05-08 23:10 -23.48443 -46.66342 5583 ft 226 kts 85°
2026-05-08 23:10 -23.48191 -46.64702 5320 ft 218 kts 67°
2026-05-08 23:11 -23.47771 -46.63146 5071 ft 210 kts 67°
2026-05-08 23:11 -23.47373 -46.61669 4803 ft 202 kts 67°
2026-05-08 23:11 -23.46985 -46.60228 4545 ft 196 kts 68°
2026-05-08 23:11 -23.46613 -46.58845 4312 ft 181 kts 68°
2026-05-08 23:12 -23.46284 -46.57613 4086 ft 160 kts 68°
2026-05-08 23:12 -23.45985 -46.56503 3885 ft 148 kts 68°
2026-05-08 23:12 -23.45700 -46.55449 3733 ft 141 kts 69°
2026-05-08 23:12 -23.45427 -46.54438 3551 ft 138 kts 68°
2026-05-08 23:13 -23.45156 -46.53437 3396 ft 138 kts 70°
2026-05-08 23:13 -23.44886 -46.52436 3219 ft 137 kts 71°
2026-05-08 23:13 -23.44616 -46.51441 3016 ft 137 kts 71°
2026-05-08 23:13 -23.44348 -46.50443 2826 ft 137 kts 72°
2026-05-08 23:14 -23.44085 -46.49448 2679 ft 137 kts 72°
2026-05-08 23:14 -23.43814 -46.48454 2482 ft 136 kts 72°
2026-05-08 23:14 -23.43565 -46.47559 2469 ft 104 kts 73°
2026-05-08 23:14 -23.43430 -46.47059 2465 ft 32 kts 69°
2026-05-08 23:15 -23.43306 -46.46866 2467 ft 31 kts 43°
2026-05-08 23:15 -23.43148 -46.46722 2467 ft 28 kts 18°
2026-05-08 23:15 -23.42956 -46.46763 2465 ft 22 kts 338°
2026-05-08 23:15 -23.42855 -46.46844 2469 ft 13 kts 273°
2026-05-08 23:16 -23.42875 -46.46915 2469 ft 12 kts 257°
2026-05-08 23:16 -23.42909 -46.47048 2468 ft 22 kts 253°
2026-05-08 23:16 -23.42953 -46.47216 2467 ft 27 kts 255°
2026-05-08 23:16 -23.43000 -46.47394 2466 ft 22 kts 264°
2026-05-08 23:17 -23.42891 -46.47484 2468 ft 22 kts 341°
2026-05-08 23:17 -23.42774 -46.47526 2464 ft 10 kts 341°
2026-05-08 23:17 -23.42747 -46.47552 2465 ft 4 kts 280°
2026-05-08 23:17 -23.42755 -46.47576 2465 ft 3 kts 243°
2026-05-08 23:18 -23.42764 -46.47594 2465 ft 3 kts 243°
2026-05-08 23:18 -23.42766 -46.47607 2465 ft 1 kts 272°
2026-05-08 23:18 -23.42767 -46.47614 2469 ft 1 kts 260°
2026-05-08 23:18 -23.42768 -46.47621 2467 ft 2 kts 259°
2026-05-08 23:19 -23.42774 -46.47643 2465 ft 2 kts 251°
2026-05-08 23:19 -23.42775 -46.47648 2465 ft 0 kts 252°